Location: Elende
(51.4317°N, 10.6316°E)
Time: 09:30:16
(UTC+00:00)

Cosmos 990 Rocket - Pass Details

Date: 18 September 2020
Orbit: 746 x 769 km, 74.0° (Epoch: 25 October)

Event Time Altitude Azimuth Distance (km) Brightness Sun altitude
Rises 17:58:14 0° 195° (SSW) 3,179 7.3 -6.1°
Reaches altitude 10° 18:00:35 10° 193° (SSW) 2,259 6.5 -6.5°
Maximum altitude 18:05:40 69° 111° (ESE) 803 3.9 -7.2°
Drops below altitude 10° 18:10:47 10° 29° (NNE) 2,279 6.3 -8.0°
Sets 18:13:10 0° 27° (NNE) 3,209 7.1 -8.4°
